TURKSAT 5B

Last updated on Thu Jul 03 2025 00:02:48 GMT+0000 (Coordinated Universal Time)

1 50212U 21126A 25182.81002954 .00000150 00000+0 00000+0 0 9993 2 50212 0.0711 334.3645 0002868 23.9221 255.4457 1.00271989 12789
UTC large
Height (km)
Speed (km/s)
/
Latitude / Longitude
Inclination (degrees)
Orbital Period (minutes)
Azimuth
Elevation
Range (km)
Doppler Factor

Next 0 passes for location: London (51.5072 / 0.1276)

Sorry there are no passes over London.